Regional Weather Roundup
Issued by NWS

Home | Current Version | Previous Version | Graphics & Text | Print | Product List | Glossary On
Versions: 1 2 3 4 5 6 7 8 9 10 11 12 13 14 15 16 17 18 19 20 21 22 23 24 25 26 27
000
ASUS45 KTFX 280210
RWRMT
MONTANA REGIONAL WEATHER ROUNDUP
NATIONAL WEATHER SERVICE GREAT FALLS MT
800 PM MDT SAT MAY 27 2017

NOTE: "FAIR" INDICATES FEW OR NO CLOUDS BELOW 12000 FEET WITH NO
SIGNIFICANT WEATHER AND/OR OBSTRUCTIONS TO VISIBILITY.

MTZ001>007-043-280300-
WEST OF THE DIVIDE

CITY           SKY/WX    TMP DP  RH WIND       PRES   REMARKS
KALISPELL      SUNNY     71  44  37 S10       30.09S
MISSOULA       SUNNY     74  42  31 N3        30.14S
BUTTE          CLEAR     65  30  27 NW9       30.23S
MULLAN PASS    SUNNY     58  35  42 CALM      30.28S
ANACONDA         N/A     64  34  32 N5        30.21S
DEER LODGE       N/A     66  37  34 NW9       30.22S
EUREKA           N/A     79  45  29 SE5       30.05S
HAMILTON         N/A     73  36  25 CALM      30.17S
RONAN            N/A     74  41  30 SE3       30.16F
$$

MTZ008-052>055-280300-
SOUTHWEST MONTANA

CITY           SKY/WX    TMP DP  RH WIND       PRES   REMARKS
BOZEMAN        PTCLDY    67  44  43 CALM      30.18S
DILLON         MOCLDY    65  35  33 SW3       30.21R
ENNIS          CLEAR     61  36  39 NE6       30.26S
THREE FORKS      N/A     67  43  41 CALM      30.15S
TWIN BRIDGES     N/A     62  36  38 CALM      30.17
$$

MTZ009-010-012-014-046-048-049-054-280300-
EAST SLOPES AND CENTRAL MONTANA

CITY           SKY/WX    TMP DP  RH WIND       PRES   REMARKS
CUT BANK       SUNNY     70  36  28 W13       30.10R
GREAT FALLS    PTCLDY    71  36  27 CALM      30.10S
MALMSTROM AFB  MOCLDY    68  38  33 CALM      30.10S
HELENA         PTCLDY    71  36  27 SW10      30.13F
CHOTEAU          N/A     70  39  32 NW6       30.13S
CONRAD           N/A     73  43  34 W9        30.12R
$$

MTZ011-013-016-021-045-047-050-051-280300-
NORTH CENTRAL MONTANA

CITY           SKY/WX    TMP DP  RH WIND       PRES   REMARKS
HAVRE          CLOUDY    70  41  34 SE9       30.00R
LEWISTOWN      CLOUDY    65  38  36 W5        30.12R
N BAR RANCH      N/A     61  39  44 W12       30.15R
CHINOOK          N/A     66  46  48 S3        30.00F
FORT BENTON      N/A     75  36  23 MISG      30.05R
$$

MTZ017>020-022>027-061-062-280300-
NORTHEAST MONTANA

CITY           SKY/WX    TMP DP  RH WIND       PRES   REMARKS
GLASGOW        CLOUDY    70  39  32 N18       29.95R
JORDAN           N/A     72  31  22 NW8       29.98R
SIDNEY         PTCLDY    69  37  30 N8        29.89R
WOLF POINT     CLEAR     74  34  23 NW14      29.90S
MALTA          PTCLDY    73  32  21 NW14G22   29.97R
PLENTYWOOD       N/A     70  34  26 NW20      29.87R
POPLAR           N/A     68  43  40 NW8       29.89S
$$

MTZ028>42-056>058-280300-
SOUTHCENTRAL AND SOUTHEAST MONTANA

CITY           SKY/WX    TMP DP  RH WIND       PRES   REMARKS
BAKER          PTCLDY    65  37  35 NW12      29.98R
BILLINGS       MOCLDY    68  38  33 W13       30.10R
LIVINGSTON     CLEAR     65  38  36 W12       30.17R
MILES CITY     CLOUDY    69  35  28 N7        29.98S
BIG TIMBER     PTCLDY    64  37  36 W12       30.18R
FORSYTH          N/A     72  36  26 NW8       30.00R
LAUREL           N/A     66  36  33 W9        30.10S
ROUNDUP          N/A     69  35  28 W9        30.00R
$$

REGIONAL REPORTS...DAKOTAS

CITY           SKY/WX    TMP DP  RH WIND       PRES   REMARKS
WILLISTON      CLEAR     71  33  24 NW18G28   29.86R
MINOT          CLEAR     59  45  59 NW5       29.82R
DICKINSON      CLEAR     62  36  37 W14       29.88R
BEACH            N/A     61  43  51 W9        29.96S
CROSBY           N/A     64  36  34 N13       29.85R
TIOGA            N/A     64  32  29 N18G25    29.86R
WATFORD CITY     N/A     68  34  28 NW16G22   29.85S
BISMARCK       CLEAR     63  44  50 NW8       29.85R
GRAND FORKS    CLOUDY    59  46  62 NW25G43   29.73R
FARGO          LGT RAIN  68  44  42 NW14      29.71S
BUFFALO SD       N/A     61  48  62 W6        29.92S
RAPID CITY     CLOUDY    66  35  31 NW16G29   30.02R
$$

REGIONAL REPORTS...WYOMING/IDAHO/WASHINGTON

CITY           SKY/WX    TMP DP  RH WIND       PRES   REMARKS
GILLETTE       CLEAR     59  39  47 NW14      30.11R
SHERIDAN       CLEAR     61  43  51 NW6       30.11S
BUFFALO WY     MOCLDY    61  38  42 W7        30.16R
CODY           CLEAR     62  32  32 NE6       30.20R
YELLOWSTONE LA   N/A     47  33  58 CALM      30.35R
IDAHO FALLS    CLEAR     65  40  39 S8        30.24R
SALMON         MOSUNNY   63  41  45 W3        30.15S
BOISE          SUNNY     76  33  21 W6        30.13F
SPOKANE        MOSUNNY   77  41  27 W7        30.12S
$$

REGIONAL REPORTS...ALBERTA

CITY           SKY/WX    TMP DP  RH WIND       PRES   REMARKS
EDMONTON       PTSUNNY   70  36  28 N13G22    30.04R
CALGARY        MOSUNNY   70  37  30 N6        30.09F
LETHBRIDGE     MOSUNNY   73  48  40 W5        30.04S
MEDICINE HAT   MOSUNNY   72  43  35 NE8G17    29.99R
WATERTON GATE    N/A     70  34  26 W10         N/A
MILK RIVER       N/A     72  46  40 NW8         N/A
ONEFOUR          N/A     66  43  42 W5          N/A
$$

REGIONAL REPORTS...SASKATCHEWAN

CITY           SKY/WX    TMP DP  RH WIND       PRES   REMARKS
SWIFT CURRENT  PTCLDY    66  37  34 N16G22    29.95R
REGINA         PTCLDY    66  36  32 N17G25    29.86R
SASKATOON      PTCLDY    68  34  28 N10       29.91R
CYPRESS HILLS    N/A     55  43  62 SW3         N/A
ROCKGLEN         N/A     64  34  32 N17         N/A
$$




USA.gov is the U.S. government's official web portal to all federal, state and local government web resources and services.